Burlington, VT

8:28 AM EDT on May 27, 2017 (GMT -0400)
Burlington International

Weather History for KBTV - March, 2002

Change the Weather History Date:

Friday, March 15, 2002

  Actual Average Record
Temperature  
Mean Temperature 40 °F 30 °F  
Max Temperature 53 °F 39 °F 72 °F (1990)
Min Temperature 28 °F 21 °F -12 °F (1993)
Degree Days  
Heating Degree Days 24 35  
Month to date heating degree days 559  
Since 1 July heating degree days 5969  
Cooling Degree Days 0 0  
Month to date cooling degree days 0  
Year to date cooling degree days 0  
Moisture  
Dew Point 29 °F    
Average Humidity 67    
Maximum Humidity 97    
Minimum Humidity 55    
Precipitation  
Precipitation 0.08 in 0.07 in 0.89 in (1933)
Month to date precipitation 1.02  
Year to date precipitation 4.84  
Snow  
Snow 0.00 in 0.50 in 4.10 in (1940)
Month to date snowfall 9.1  
Since 1 July snowfall 69.9  
Snow Depth -    
Sea Level Pressure  
Sea Level Pressure 29.94 in    
Wind  
Wind Speed 5 mph (South)    
Max Wind Speed 17 mph    
Max Gust Speed 25 mph    
Visibility 9 miles    
Events Rain    
T = Trace of Precipitation, MM = Missing Value Source: NWS Daily Summary

Daily Weather History Graph

Daily Weather History Graph

Search for Another Location

Airport or City:

Trip Planner

Search our weather history database for the weather conditions in past years. The results will help you decide how hot, cold, wet, or windy it might be!

Date:

Astronomy

Mar. 15, 2002 Rise Set
Actual Time 6:05 AM EST 5:58 PM EST
Civil Twilight 5:36 AM EST 6:27 PM EST
Nautical Twilight 5:02 AM EST 7:01 PM EST
Astronomical Twilight 4:28 AM EST 7:35 PM EST
Moon 7:07 AM EST (3/15) 7:34 PM EST (3/15)
Length of Visible Light 12h 51m
Length of Day
11h 53m
New Moon, 2% of the Moon is Illuminated
Mar 15
New Moon
Mar 21
First Quarter
Mar 28
Full
Apr 4
Last Quarter
Apr 12
New

Hourly Weather History & Observations

Time (EST) Temp. Windchill Dew Point Humidity Pressure Visibility Wind Dir Wind Speed Gust Speed Precip Events Conditions
12:54 AM 28.9 °F - 18.0 °F 64% 30.18 in 10.0 mi Calm Calm - N/A   Mostly Cloudy
1:54 AM 30.0 °F 24.1 °F 18.0 °F 61% 30.16 in 10.0 mi North 5.8 mph - N/A   Overcast
2:54 AM 30.9 °F 26.2 °F 17.1 °F 57% 30.16 in 10.0 mi North 4.6 mph - N/A   Overcast
3:54 AM 30.9 °F 25.2 °F 18.0 °F 59% 30.14 in 10.0 mi NNW 5.8 mph - N/A   Overcast
4:54 AM 30.9 °F - 18.0 °F 59% 30.10 in 10.0 mi Calm Calm - N/A   Overcast
5:54 AM 30.9 °F 22.8 °F 19.0 °F 61% 30.10 in 10.0 mi NW 9.2 mph - N/A   Overcast
6:54 AM 30.9 °F - 18.0 °F 59% 30.06 in 10.0 mi Calm Calm - N/A   Overcast
7:54 AM 30.9 °F - 18.0 °F 59% 30.04 in 10.0 mi Calm Calm - N/A   Overcast
8:54 AM 32.0 °F - 19.0 °F 59% 30.02 in 10.0 mi Calm Calm - N/A   Overcast
9:54 AM 32.0 °F 26.4 °F 21.0 °F 64% 30.00 in 10.0 mi South 5.8 mph - 0.00 in   Light Freezing Drizzle
10:13 AM 33.8 °F 27.7 °F 23.0 °F 65% 29.96 in 10.0 mi SSW 6.9 mph - 0.00 in   Mostly Cloudy
10:54 AM 35.1 °F 26.4 °F 21.9 °F 59% 29.96 in 10.0 mi South 12.7 mph - 0.00 in   Mostly Cloudy
11:54 AM 37.0 °F 30.4 °F 25.0 °F 62% 29.91 in 10.0 mi South 9.2 mph - 0.00 in   Overcast
12:54 PM 41.0 °F 35.2 °F 28.0 °F 60% 29.88 in 10.0 mi South 9.2 mph - N/A   Overcast
1:54 PM 45.0 °F 39.3 °F 30.0 °F 56% 29.85 in 10.0 mi SE 11.5 mph - N/A   Overcast
2:54 PM 51.1 °F - 36.0 °F 56% 29.82 in 10.0 mi SSE 15.0 mph 21.9 mph N/A   Scattered Clouds
3:54 PM 53.1 °F - 37.0 °F 55% 29.80 in 10.0 mi South 17.3 mph 25.3 mph N/A   Scattered Clouds
4:54 PM 52.0 °F - 37.9 °F 59% 29.81 in 10.0 mi South 11.5 mph - N/A   Overcast
5:54 PM 52.0 °F - 39.9 °F 63% 29.77 in 10.0 mi South 16.1 mph 24.2 mph N/A   Overcast
6:54 PM 52.0 °F - 42.1 °F 69% 29.81 in 10.0 mi SSW 15.0 mph - 0.00 in Rain Light Rain
7:54 PM 44.1 °F 40.1 °F 43.0 °F 96% 29.83 in 5.0 mi East 6.9 mph - 0.08 in Rain Light Rain
8:54 PM 43.0 °F - 41.0 °F 93% 29.81 in 5.0 mi Calm Calm - 0.00 in   Overcast
9:54 PM 45.0 °F 43.5 °F 42.1 °F 90% 29.79 in 6.0 mi SSE 3.5 mph - 0.00 in   Overcast
10:54 PM 43.0 °F - 42.1 °F 97% 29.79 in 4.0 mi Calm Calm - 0.00 in   Overcast
11:54 PM 43.0 °F 40.3 °F 42.1 °F 97% 29.80 in 3.0 mi NNW 4.6 mph - 0.00 in Rain Light Rain